Davenport, IA

9:45 PM CDT on March 27, 2017 (GMT -0500)
Davenport Municipal

Weather History for KDVN - August, 2012

Change the Weather History Date:

Friday, August 10, 2012

  Actual Average Record
Temperature  
Mean Temperature 68 °F 72 °F  
Max Temperature 79 °F 82 °F 98 °F (1983)
Min Temperature 56 °F 62 °F 52 °F (2004)
Degree Days  
Heating Degree Days 0 0  
Month to date heating degree days 0 0  
Since 1 June heating degree days 17 28  
Since 1 July heating degree days 0 4  
Cooling Degree Days 3 7  
Month to date cooling degree days 85 77  
Year to date cooling degree days 917 578  
Since 1 June cooling degree days 763 517  
Growing Degree Days 16 (Base 50)    
Moisture  
Dew Point 55 °F    
Average Humidity 66    
Maximum Humidity 93    
Minimum Humidity 39    
Precipitation  
Precipitation 0.00 in 0.19 in 0.86 in (1961)
Month to date precipitation 2.59 1.79  
Year to date precipitation 18.88 22.99  
Snow  
Snow 0.00 in - - ()
Month to date snowfall 0.0  
Since 1 June snowfall 0.0  
Since 1 July snowfall 0.0  
Snow Depth 0.00 in    
Sea Level Pressure  
Sea Level Pressure 29.99 in    
Wind  
Wind Speed 9 mph (North)    
Max Wind Speed 18 mph    
Max Gust Speed 25 mph    
Visibility 9 miles    
Events      
T = Trace of Precipitation, MM = Missing Value Source: NWS Daily Summary

Daily Weather History Graph

Daily Weather History Graph

Search for Another Location

Airport or City:

Trip Planner

Search our weather history database for the weather conditions in past years. The results will help you decide how hot, cold, wet, or windy it might be!

Date:

Astronomy

Aug. 10, 2012 Rise Set
Actual Time 6:06 AM CDT 8:08 PM CDT
Civil Twilight 5:36 AM CDT 8:38 PM CDT
Nautical Twilight 4:58 AM CDT 9:15 PM CDT
Astronomical Twilight 4:18 AM CDT 9:55 PM CDT
Moon No Moon Rise 2:49 PM CDT (8/10)
Length of Visible Light 15h 02m
Length of Day
14h 01m
Last Quarter, 41% of the Moon is Illuminated
Aug 10
Last Quarter
Aug 17
New
Aug 24
First Quarter
Aug 31
Full
Sep 8
Last Quarter

Hourly Weather History & Observations

Time (CDT) Temp. Dew Point Humidity Pressure Visibility Wind Dir Wind Speed Gust Speed Precip Events Conditions
12:52 AM 59.0 °F 55.9 °F 90% 29.94 in 10.0 mi North 6.9 mph - N/A   Scattered Clouds
1:52 AM 57.9 °F 55.0 °F 90% 29.94 in 10.0 mi North 8.1 mph - 0.01 in   Clear
2:52 AM 57.0 °F 55.0 °F 93% 29.95 in 10.0 mi North 10.4 mph - N/A   Clear
3:52 AM 55.9 °F 54.0 °F 93% 29.96 in 10.0 mi NNW 6.9 mph - N/A   Clear
4:52 AM 57.0 °F 55.0 °F 93% 29.96 in 10.0 mi North 5.8 mph - N/A   Mostly Cloudy
5:39 AM 57.2 °F 55.4 °F 94% 29.99 in 9.0 mi North 8.1 mph - N/A   Scattered Clouds
5:52 AM 57.0 °F 55.0 °F 93% 29.97 in 8.0 mi North 6.9 mph - N/A   Clear
6:34 AM 57.2 °F 55.4 °F 94% 30.00 in 6.0 mi NNW 5.8 mph - N/A   Mostly Cloudy
6:41 AM 57.2 °F 55.4 °F 94% 30.01 in 6.0 mi NNW 5.8 mph - N/A   Mostly Cloudy
6:52 AM 57.0 °F 55.9 °F 96% 29.99 in 6.0 mi NNW 4.6 mph - N/A   Overcast
7:20 AM 59.0 °F 57.2 °F 94% 29.99 in 7.0 mi North 9.2 mph - N/A   Scattered Clouds
7:52 AM 61.0 °F 57.9 °F 90% 30.00 in 7.0 mi North 11.5 mph - N/A   Clear
8:11 AM 60.8 °F 57.2 °F 88% 30.02 in 8.0 mi North 10.4 mph - N/A   Scattered Clouds
8:23 AM 60.8 °F 57.2 °F 88% 30.01 in 8.0 mi North 10.4 mph 20.7 mph N/A   Mostly Cloudy
8:34 AM 62.6 °F 57.2 °F 82% 30.03 in 9.0 mi NNE 13.8 mph 19.6 mph N/A   Overcast
8:52 AM 64.0 °F 57.9 °F 80% 30.02 in 10.0 mi NNE 15.0 mph 19.6 mph N/A   Mostly Cloudy
9:19 AM 64.4 °F 57.2 °F 77% 30.03 in 10.0 mi North 15.0 mph - N/A   Scattered Clouds
9:52 AM 68.0 °F 57.9 °F 70% 30.00 in 10.0 mi North 13.8 mph 21.9 mph N/A   Clear
10:52 AM 72.0 °F 57.0 °F 59% 30.02 in 10.0 mi North 17.3 mph - N/A   Partly Cloudy
11:52 AM 75.0 °F 55.0 °F 50% 30.01 in 10.0 mi NNE 15.0 mph 21.9 mph N/A   Clear
12:52 PM 75.9 °F 53.1 °F 45% 30.01 in 10.0 mi North 11.5 mph 19.6 mph N/A   Partly Cloudy
1:52 PM 73.9 °F 52.0 °F 46% 30.00 in 10.0 mi North 13.8 mph 21.9 mph N/A   Mostly Cloudy
2:52 PM 78.1 °F 53.1 °F 42% 30.00 in 10.0 mi North 11.5 mph 17.3 mph N/A   Partly Cloudy
3:52 PM 78.1 °F 51.1 °F 39% 29.99 in 10.0 mi North 11.5 mph - N/A   Mostly Cloudy
4:52 PM 78.1 °F 51.1 °F 39% 29.99 in 10.0 mi North 11.5 mph - N/A   Scattered Clouds
5:52 PM 77.0 °F 50.0 °F 39% 29.98 in 10.0 mi North 13.8 mph - N/A   Partly Cloudy
6:52 PM 73.9 °F 53.1 °F 48% 29.98 in 10.0 mi NNE 8.1 mph - N/A   Clear
7:52 PM 66.9 °F 54.0 °F 63% 29.99 in 10.0 mi NE 3.5 mph - N/A   Clear
8:52 PM 61.0 °F 55.9 °F 83% 30.01 in 10.0 mi NW 3.5 mph - N/A   Partly Cloudy
9:52 PM 62.1 °F 55.9 °F 80% 30.02 in 10.0 mi NW 5.8 mph - N/A   Mostly Cloudy
10:52 PM 59.0 °F 54.0 °F 83% 30.02 in 10.0 mi NNW 5.8 mph - N/A   Clear
11:52 PM 57.9 °F 53.1 °F 84% 30.01 in 10.0 mi NNW 5.8 mph - N/A   Clear